Location: Dead Woman Crossing
(43.5369°N, 106.3228°W)
Time: 04:29:36
(UTC+00:00)

QB50P2 - Pass Details

Date: 27 June 2022
Orbit: 590 x 605 km, 97.9° (Epoch: 13 August)

Event Time Altitude Azimuth Distance (km) Brightness Sun altitude
Rises 07:27:14 0° 29° (NNE) 2,856 ? -23.0°
Reaches altitude 10° 07:30:02 10° 49° (NE) 1,950 ? -23.0°
Maximum altitude 07:32:55 18° 92° (E) 1,507 ? -22.9°
Enters shadow 07:33:30 17° 103° (ESE) 1,527 ? -22.9°
